Regional Weather Roundup
Issued by NWS Raleigh/Durham, NC

Home | Current Version | Previous Version | Text Only | Print | Product List | Glossary On
Versions: 1 2 3 4 5 6 7 8 9 10 11 12 13 14 15 16 17 18 19 20 21 22 23 24 25 26 27 28 29 30 31 32 33 34 35 36 37 38 39 40 41 42 43 44 45 46 47 48 49 50
000
ASUS42 KRAH 260210
RWRRAH
NORTH CAROLINA WEATHER ROUNDUP
NATIONAL WEATHER SERVICE RALEIGH NC
1000 PM EDT SUN SEP 25 2016

NOTE: "FAIR" INDICATES FEW OR NO CLOUDS BELOW 12,000 FEET WITH NO
SIGNIFICANT WEATHER AND/OR OBSTRUCTIONS TO VISIBILITY.

NCZ001-053-055-056-065-067-260300-
WESTERN NORTH CAROLINA

CITY           SKY/WX    TMP DP  RH WIND       PRES   REMARKS
ASHEVILLE      MOCLDY    72  66  81 SW3       30.18R
JEFFERSON      CLOUDY    63  63  98 CALM      30.23R FOG
HICKORY        MOCLDY    73  69  87 E6        30.14R
RUTHERFORDTON  CLOUDY    78  67  70 NE5       30.13R
MOUNT AIRY     MOCLDY    69  67  91 E3        30.19R FOG
BOONE          MOCLDY    62  62 100 SE3       30.25R FOG
$$

NCZ021-022-025-041-071-084-088-260300-
CENTRAL NORTH CAROLINA

CITY           SKY/WX    TMP DP  RH WIND       PRES   REMARKS
CHARLOTTE      CLOUDY    80  68  66 E8        30.11R
GREENSBORO     CLOUDY    70  68  93 SE7       30.15R
WINSTON-SALEM  CLOUDY    69  66  90 E5        30.17R FOG
RALEIGH-DURHAM CLOUDY    70  64  81 E6        30.16R
FORT BRAGG     MOCLDY    71  68  88 E6        30.13R
FAYETTEVILLE   CLOUDY    73  66  78 E8        30.14R
BURLINGTON     CLOUDY    70  68  93 CALM      30.15S
LAURINBURG     MOCLDY    73  70  90 E7        30.13R
$$

NCZ011-015-027-028-043-044-047-080-103-260300-
NORTHEASTERN NORTH CAROLINA

CITY           SKY/WX    TMP DP  RH WIND       PRES   REMARKS
ROCKY MT-WILSO CLEAR     66  65  96 CALM      30.16R
GREENVILLE     MOCLDY    68  63  83 SE3       30.18R
WASHINGTON     CLOUDY    66  61  85 E3        30.17R
ELIZABETH CITY CLOUDY    68  58  70 E6        30.17S
MANTEO         CLEAR     67  57  68 E7        30.17S
CAPE HATTERAS  CLEAR     69  58  67 NE7       30.15S
$$

NCZ078-087-090-091-093-098-101-260300-
SOUTHEASTERN NORTH CAROLINA

CITY           SKY/WX    TMP DP  RH WIND       PRES   REMARKS
LUMBERTON      CLOUDY    74  70  87 E7        30.12R
GOLDSBORO      CLOUDY    68  66  94 E2        30.14R
KINSTON        CLOUDY    70  61  73 E6        30.16S
KENANSVILLE    CLOUDY    70  64  83 CALM      30.15S
NEW BERN       PTCLDY    69  60  73 NE7       30.17R
CHERRY POINT   CLOUDY    71  61  70 E9        30.16S
BEAUFORT       CLOUDY    72  61  68 NE6       30.14S
JACKSONVILLE   CLOUDY    72  62  71 E10       30.14R
WILMINGTON     PTCLDY    70  64  81 NE5       30.12F
$$




USA.gov is the U.S. government's official web portal to all federal, state and local government web resources and services.